FW2458 Weather Reports


Display with metric or nautical units.
time (UTC)temp
F
wind
direction
speed
MPH
gust
MPH
rain 1hr
in
rain 24hr
in
rain mn
in
humidity
%
barometer
mb
20260503213545 59 57 2.0 12.0 0.00 0.00 0.00 33 1010.2
20260503213044 59 69 2.0 12.0 0.00 0.00 0.00 32 1010.1
20260503212815 59 43 3.0 12.0 0.00 0.00 0.00 33 1010.0
20260503212044 59 85 3.0 12.0 0.00 0.00 0.00 32 1010.0
20260503211544 59 106 3.0 10.0 0.00 0.00 0.00 34 1010.0
20260503211044 59 65 2.0 10.0 0.00 0.00 0.00 32 1010.0
20260503210545 59 182 2.0 9.0 0.00 0.00 0.00 35 1010.1
20260503210044 59 74 2.0 14.0 0.00 0.00 0.00 32 1010.0
20260503205546 58 184 2.0 14.0 0.00 0.00 0.00 36 1010.0
20260503205045 58 194 3.0 14.0 0.00 0.00 0.00 33 1010.1
20260503204545 58 109 3.0 14.0 0.00 0.00 0.00 35 1009.9
20260503204045 58 173 2.0 11.0 0.00 0.00 0.00 34 1010.1
20260503203546 59 187 3.0 11.0 0.00 0.00 0.00 32 1010.0
20260503203045 59 173 3.0 13.0 0.00 0.00 0.00 34 1010.1
20260503202544 59 206 3.0 14.0 0.00 0.00 0.00 34 1010.1
20260503202046 58 79 3.0 14.0 0.00 0.00 0.00 36 1010.2
20260503201546 58 192 3.0 14.0 0.00 0.00 0.00 36 1010.1
20260503201044 58 105 2.0 14.0 0.00 0.00 0.00 36 1010.4
20260503200544 58 67 2.0 12.0 0.00 0.00 0.00 35 1010.2
20260503200044 58 215 3.0 12.0 0.00 0.00 0.00 36 1010.3
20260503195545 58 94 2.0 12.0 0.00 0.00 0.00 34 1010.4
20260503195044 58 150 2.0 7.0 0.00 0.00 0.00 34 1010.5
20260503194544 58 200 3.0 11.0 0.00 0.00 0.00 34 1010.6
20260503194313 58 29 2.0 11.0 0.00 0.00 0.00 35 1010.6
20260503193811 58 206 2.0 8.0 0.00 0.00 0.00 35 1010.5
20260503193300 58 162 3.0 10.0 0.00 0.00 0.00 36 1010.5
20260503192544 58 221 3.0 11.0 0.00 0.00 0.00 38 1010.9
20260503192236 58 58 3.0 11.0 0.00 0.00 0.00 39 1010.9
20260503192126 59 38 3.0 11.0 0.00 0.00 0.00 36 1010.6
20260503191638 59 153 3.0 11.0 0.00 0.00 0.00 35 1010.9
20260503190543 58 51 2.0 11.0 0.00 0.00 0.00 35 1010.8
20260503190042 58 26 3.0 9.0 0.00 0.00 0.00 38 1011.0
20260503185542 58 69 3.0 10.0 0.00 0.00 0.00 38 1011.0
20260503185044 58 28 2.0 10.0 0.00 0.00 0.00 37 1011.1
20260503184542 58 63 2.0 10.0 0.00 0.00 0.00 41 1011.1
20260503184041 57 45 3.0 10.0 0.00 0.00 0.00 40 1011.1
20260503183542 57 172 3.0 10.0 0.00 0.00 0.00 37 1011.2
20260503183040 57 207 3.0 10.0 0.00 0.00 0.00 39 1011.2
20260503182609 57 215 2.0 10.0 0.00 0.00 0.00 39 1011.0
20260503182554 57 195 3.0 10.0 0.00 0.00 0.00 38 1011.1
20260503181539 57 45 2.0 9.0 0.00 0.00 0.00 41 1011.1
20260503181040 57 5 3.0 9.0 0.00 0.00 0.00 40 1011.1
20260503180534 56 150 3.0 9.0 0.00 0.00 0.00 39 1011.3
20260503180025 57 91 3.0 11.0 0.00 0.00 0.00 40 1011.2
20260503175518 56 242 3.0 11.0 0.00 0.00 0.00 41 1011.1
20260503175239 56 234 2.0 11.0 0.00 0.00 0.00 43 1011.3
20260503174502 55 187 2.0 11.0 0.00 0.00 0.00 42 1011.3
20260503174223 55 178 3.0 12.0 0.00 0.00 0.00 45 1011.5
20260503173711 54 205 3.0 12.0 0.00 0.00 0.00 46 1011.4
20260503172940 53 155 3.0 10.0 0.00 0.00 0.00 45 1011.6
20260503172433 54 137 3.0 11.0 0.00 0.00 0.00 46 1011.6
20260503171928 53 198 3.0 11.0 0.00 0.00 0.00 44 1011.6
20260503171418 53 175 3.0 11.0 0.00 0.00 0.00 43 1011.6
20260503171359 53 31 3.0 13.0 0.00 0.00 0.00 44 1011.7
20260503170406 52 70 3.0 13.0 0.00 0.00 0.00 45 1011.7
20260503150616 51 39 3.0 12.0 0.00 0.00 0.00 44 1012.1
20260503150117 51 57 3.0 12.0 0.00 0.00 0.00 43 1012.1
20260503131336 49 87 3.0 10.0 0.00 0.00 0.00 55 1012.1
20260503130825 49 77 2.0 10.0 0.00 0.00 0.00 56 1012.0
20260503130320 49 195 2.0 9.0 0.00 0.00 0.00 58 1012.1
20260503110629 43 200 2.0 11.0 0.00 0.00 0.00 64 1011.5
20260503110141 43 70 2.0 11.0 0.00 0.00 0.00 64 1011.4
20260503100119 43 64 1.0 5.0 0.00 0.00 0.00 62 1010.8
20260503081111 45 66 1.0 5.0 0.00 0.00 0.00 59 1010.8
20260503080612 45 28 2.0 5.0 0.00 0.00 0.00 59 1010.7
20260503080117 45 44 1.0 5.0 0.00 0.00 0.00 59 1010.7
20260503072613 45 86 0.0 3.0 0.00 0.00 0.00 58 1010.5
20260503072105 45 86 0.0 3.0 0.00 0.00 0.00 59 1010.3
20260503071557 45 86 0.0 3.0 0.00 0.00 0.00 58 1010.4
20260503071051 45 86 0.0 3.0 0.00 0.00 0.00 58 1010.4
20260503070545 45 179 0.0 2.0 0.00 0.00 0.00 58 1010.5
20260503054854 48 86 1.0 6.0 0.00 0.00 0.00 52 1010.8
20260503054344 48 105 2.0 7.0 0.00 0.00 0.00 51 1010.8
20260503053839 48 205 1.0 7.0 0.00 0.00 0.00 51 1010.9
20260503053331 48 81 1.0 5.0 0.00 0.00 0.00 51 1011.0
20260503053053 48 85 1.0 8.0 0.00 0.00 0.00 51 1010.9
20260503052314 48 30 2.0 8.0 0.00 0.00 0.00 51 1011.0
20260503051808 48 98 2.0 8.0 0.00 0.00 0.00 50 1011.1
20260503051259 48 295 2.0 8.0 0.00 0.00 0.00 50 1011.2
20260503050753 48 81 1.0 5.0 0.00 0.00 0.00 50 1011.1
20260503050247 48 82 1.0 4.0 0.00 0.00 0.00 50 1011.0
20260503045737 49 49 1.0 4.0 0.00 0.00 0.00 50 1011.1
20260503045231 49 47 1.0 4.0 0.00 0.00 0.00 50 1011.1
20260503044724 49 111 1.0 3.0 0.00 0.00 0.00 50 1011.2
20260503044214 49 82 1.0 6.0 0.00 0.00 0.00 49 1011.2
20260503043709 49 82 1.0 6.0 0.00 0.00 0.00 49 1011.3
20260503043204 49 42 2.0 8.0 0.00 0.00 0.00 48 1011.3
20260503042653 49 84 1.0 8.0 0.00 0.00 0.00 48 1011.4
20260503042147 49 46 0.0 3.0 0.00 0.00 0.00 48 1011.3
20260503041641 49 46 0.0 3.0 0.00 0.00 0.00 48 1011.4
20260503041131 49 51 1.0 3.0 0.00 0.00 0.00 49 1011.4
20260503040851 49 51 1.0 3.0 0.00 0.00 0.00 48 1011.3
20260503040132 50 90 1.0 3.0 0.00 0.00 0.00 48 1011.2
20260503035609 50 183 1.0 4.0 0.00 0.00 0.00 48 1011.2
20260503035102 50 184 1.0 4.0 0.00 0.00 0.00 47 1011.2
20260503034821 50 195 1.0 7.0 0.00 0.00 0.00 48 1011.3
20260503034047 50 52 0.0 7.0 0.00 0.00 0.00 48 1011.1
20260503033541 50 101 1.0 7.0 0.00 0.00 0.00 48 1011.2
20260503033256 50 101 1.0 7.0 0.00 0.00 0.00 47 1011.1
20260503032525 50 182 1.0 3.0 0.00 0.00 0.00 47 1011.1
20260503032018 50 75 1.0 3.0 0.00 0.00 0.00 47 1011.2
20260503031514 50 104 1.0 3.0 0.00 0.00 0.00 47 1011.3
20260503031502 50 154 1.0 3.0 0.00 0.00 0.00 47 1011.2
20260503030458 50 72 1.0 3.0 0.00 0.00 0.00 47 1011.1
20260503030216 50 143 1.0 6.0 0.00 0.00 0.00 47 1011.2
20260503025441 50 182 1.0 6.0 0.00 0.00 0.00 47 1011.3
20260503024935 50 170 1.0 4.0 0.00 0.00 0.00 47 1011.2
20260503024429 51 74 1.0 3.0 0.00 0.00 0.00 46 1011.2
20260503023919 51 69 1.0 3.0 0.00 0.00 0.00 46 1011.1
20260503023413 51 124 1.0 3.0 0.00 0.00 0.00 46 1011.0
20260503022906 51 180 1.0 3.0 0.00 0.00 0.00 46 1011.1
20260503022626 51 157 0.0 3.0 0.00 0.00 0.00 46 1011.1
20260503021850 51 29 1.0 3.0 0.00 0.00 0.00 45 1011.1
20260503021345 51 29 1.0 3.0 0.00 0.00 0.00 45 1011.4
20260503020834 51 183 1.0 3.0 0.00 0.00 0.00 45 1011.3
20260503020551 52 98 0.0 4.0 0.00 0.00 0.00 45 1011.3
20260503015823 52 100 1.0 4.0 0.00 0.00 0.00 45 1011.3
20260503015313 52 72 1.0 3.0 0.00 0.00 0.00 45 1011.5
20260503014806 52 58 1.0 4.0 0.00 0.00 0.00 45 1011.6
20260503014301 52 54 0.0 4.0 0.00 0.00 0.00 45 1011.4
20260503013751 52 84 0.0 4.0 0.00 0.00 0.00 46 1011.3
20260503013245 51 84 0.0 4.0 0.00 0.00 0.00 45 1011.4
20260503012739 51 70 0.0 2.0 0.00 0.00 0.00 46 1011.3
20260503012228 51 70 0.0 0.0 0.00 0.00 0.00 46 1011.3
20260503011723 51 70 0.0 1.0 0.00 0.00 0.00 47 1011.2
20260503011217 51 70 0.0 1.0 0.00 0.00 0.00 47 1011.3
20260503010706 51 70 0.0 1.0 0.00 0.00 0.00 47 1011.3
20260503010201 51 63 0.0 1.0 0.00 0.00 0.00 47 1011.2
20260503005654 51 63 0.0 1.0 0.00 0.00 0.00 48 1011.1
20260503005145 51 63 0.0 3.0 0.00 0.00 0.00 47 1010.9
20260503004639 52 63 0.0 3.0 0.00 0.00 0.00 47 1010.9
20260503004133 52 63 0.0 3.0 0.00 0.00 0.00 47 1010.8
20260503003623 52 62 0.0 3.0 0.00 0.00 0.00 46 1010.8
20260503003116 52 63 0.0 0.0 0.00 0.00 0.00 46 1010.8
20260503002611 52 63 0.0 1.0 0.00 0.00 0.00 45 1010.8
20260503002322 52 63 0.0 1.0 0.00 0.00 0.00 45 1010.8
20260503001555 52 63 0.0 1.0 0.00 0.00 0.00 45 1010.7
20260503001049 53 63 0.0 3.0 0.00 0.00 0.00 45 1010.6
20260503000545 53 63 0.0 3.0 0.00 0.00 0.00 45 1010.6
20260503000057 53 63 0.0 3.0 0.00 0.00 0.00 44 1010.7
20260502235543 53 63 0.0 3.0 0.00 0.00 0.00 44 1010.6
20260502235318 53 69 0.0 2.0 0.00 0.00 0.00 45 1010.7
20260502234542 53 70 0.0 2.0 0.00 0.00 0.00 44 1010.6
20260502234042 54 70 0.0 6.0 0.00 0.00 0.00 44 1010.6
20260502233808 54 71 0.0 6.0 0.00 0.00 0.00 44 1010.6
20260502233252 54 71 1.0 6.0 0.00 0.00 0.00 44 1010.4
20260502233141 54 71 1.0 6.0 0.00 0.00 0.00 44 1010.6
20260502232042 55 44 1.0 5.0 0.00 0.00 0.00 43 1010.5
20260502231543 55 48 1.0 5.0 0.00 0.00 0.00 42 1010.5
20260502231043 55 153 1.0 5.0 0.00 0.00 0.00 43 1010.4
20260502230545 55 106 1.0 5.0 0.00 0.00 0.00 42 1010.5
20260502230312 55 108 0.0 3.0 0.00 0.00 0.00 42 1010.4
20260502225538 56 83 1.0 3.0 0.00 0.00 0.00 43 1010.2
20260502225037 56 82 1.0 6.0 0.00 0.00 0.00 41 1010.2
20260502224537 56 82 1.0 6.0 0.00 0.00 0.00 40 1010.1
20260502224256 57 80 1.0 7.0 0.00 0.00 0.00 40 1010.2
20260502224034 57 82 2.0 7.0 0.00 0.00 0.00 41 1010.1
20260502223033 57 71 0.0 3.0 0.00 0.00 0.00 41 1010.1
20260502222532 58 53 0.0 5.0 0.00 0.00 0.00 41 1010.1
20260502222034 58 43 1.0 5.0 0.00 0.00 0.00 40 1010.0
20260502221532 58 163 1.0 5.0 0.00 0.00 0.00 42 1010.1
20260502221032 58 80 1.0 5.0 0.00 0.00 0.00 40 1010.1
20260502220546 57 51 1.0 3.0 0.00 0.00 0.00 40 1010.1
20260502220031 57 164 0.0 4.0 0.00 0.00 0.00 40 1010.1
20260502215528 57 164 1.0 4.0 0.00 0.00 0.00 41 1010.0
20260502215028 57 65 1.0 4.0 0.00 0.00 0.00 42 1010.0
20260502214527 58 134 2.0 4.0 0.00 0.00 0.00 40 1010.1
20260502214023 58 202 1.0 8.0 0.00 0.00 0.00 41 1010.0